Weather in Gruzdevo

Russia / Ivanovo Oblast     56°42′18″N   42°03′53″E
temp.,
°C
wind,
m/s
gust,
m/s
humid.,
%
clouds,
%
prec.,
mm/h
press.,
hPa
HPBL,
m
5 august, thu
thu500:00+13nne22625 0.0 101744
03:00+15nne2251100 0.0 101758
06:00+15n1158100 0.0 101826
09:00+19ne114346 0.0 1018432
12:00+24sse123541 0.0 10181849
15:00+24sse1234100 0.0 10172418
18:00+19nne225397 0.0 101630
21:00+18e3952100 0.0 1016257
6 august, fri
fri600:00+18ese3105398 0.0 1016323
03:00+17se41060100 0.1 1015251
06:00+14ese3880100 0.4 1015206
09:00+16s2794100 1.8 1015401
12:00+15sse4997100 2.6 1015438
15:00+15se4797100 5.9 1015465
18:00+15ese2499100 5.2 1014187
21:00+15ese2599100 6.0 1014143
7 august, sat
sat700:00+15e3697100 0.2 1014157
03:00+16e31196100 0.2 1013388
06:00+15e3896100 0.6 1014284
09:00+16e379396 1.8 1014322
12:00+23se34676 0.5 1013765
15:00+24ssw4560100 0.7 1014833
18:00+22e357692 0.1 1013144
21:00+17e3986100 0.1 1014170
8 august, sun
sun800:00+18e4879100 0.0 1013180
03:00+18ese3973100 0.0 1013192
06:00+19sse396431 0.0 1013239
09:00+25sse4844100 0.0 1012377
12:00+28ssw4639100 0.0 10121103
15:00+23wnw3661100 0.1 1013156
18:00+21w2475100 0.0 1013175
21:00+17wsw25959 0.1 1014115
9 august, mon
mon900:00+16wsw26960 0.0 1014119
03:00+14w25935 0.0 1014101
06:00+15wsw269294 0.0 1015182
09:00+20w36695 0.0 1015698
12:00+24w355093 0.0 10141852
15:00+24wsw354694 0.0 10141856
18:00+22nnw2362100 0.0 101469
21:00+19ne23692 0.0 101456